Regional Weather Roundup
Issued by NWS

Home | Current Version | Previous Version | Text Only | Print | Product List | Glossary Off
Versions: 1 2 3 4 5 6 7 8 9 10 11 12 13 14 15 16 17 18 19 20 21 22 23 24 25 26 27 28 29 30 31 32 33 34 35 36 37 38 39 40 41 42 43 44 45 46 47 48 49 50

838
ASUS45 KCYS 261610
RWRWY

WYOMING REGIONAL WEATHER ROUNDUP
NATIONAL WEATHER SERVICE CHEYENNE WY
1000 AM MDT SUN MAR 26 2017

NOTE:  "FAIR" INDICATES FEW OR NO CLOUDS BELOW 12,000 FEET
WITH NO SIGNIFICANT WEATHER AND/OR OBSTRUCTIONS TO VISIBILITY.

WYZ001-261700-
YELLOWSTONE NATIONAL PARK

CITY           SKY/WX    TMP DP  RH WIND       PRES   REMARKS
LK YELLOWSTONE   N/A     26  22  84 E5        30.01S WCI  20
W YELLOWSTONE  NOT AVBL

$$
WYZ002>013-054>058-071-098>099-261700-
NORTHERN WYOMING

CITY           SKY/WX    TMP DP  RH WIND       PRES   REMARKS
JACKSON        NOT AVBL
CODY           FAIR      47  25  42 N5        29.97S
GREYBULL       FAIR      40  37  89 S5        29.97R
WORLAND        FAIR      44  36  73 VRB5      29.97R
SHERIDAN       FAIR      46  39  76 CALM      29.97R
BUFFALO        FAIR      45  36  70 N9        29.96S
GILLETTE       CLOUDY    42  37  82 N8        29.95R
HULETT         CLOUDY    43  36  75 N8        29.95S
NEWCASTLE      LGT RAIN  37  37 100 NW12      29.91R WCI  30

$$
WYZ014>020-022>026-101>103-261700-
CENTRAL WYOMING

CITY           SKY/WX    TMP DP  RH WIND       PRES   REMARKS
BIG PINEY      FAIR      33  21  61 NW8       30.02R WCI  26
PINEDALE       FAIR      28  21  74 N6        30.03R WCI  22
DUBOIS         FAIR      34  21  60 N7        29.97F WCI  28
LANDER         FAIR      44  29  55 VRB3      29.97R
RIVERTON       FAIR      43  31  62 NW7       29.98R
CASPER         CLOUDY    39  36  89 CALM      29.96F
DOUGLAS        LGT RAIN  38  36  92 NW14      29.96R WCI  30

$$
WYZ021-027>030-104>119-261700-
SOUTHERN WYOMING

CITY           SKY/WX    TMP DP  RH WIND       PRES   REMARKS
EVANSTON       FAIR      31  27  85 SW6       30.05S WCI  25
FORT BRIDGER   FAIR      36  26  68 W13       30.07R WCI  27
ROCK SPRINGS   FAIR      36  26  67 W7        30.03R WCI  30
DIXON            N/A     36  32  87 W5        30.02S WCI  32
RAWLINS        CLOUDY    38  32  79 NW3       29.97S
SARATOGA       CLOUDY    36  36 100 N7        29.98S WCI  30
LARAMIE        CLOUDY    35  33  92 NW16      29.92R WCI  25
CHEYENNE       LGT RAIN  40  35  83 N12G20    29.90R WCI  33
TORRINGTON     CLOUDY    47  36  65 N12       29.89R
PINE BLUFFS    CLOUDY    41  34  75 N18       29.90R

$$




USA.gov is the U.S. government's official web portal to all federal, state and local government web resources and services.